Tracking 29892 objects as of 21-Nov-2024
HD Live streaming from Space Station
objects crossing your sky now

DMSP 5D-2 F13 DEB

Track DMSP 5D-2 F13 DEB now!
10-day predictions


NORAD ID: 40565
Int'l Code: 1995-015DY
Perigee: 831.3 km
Apogee: 1,083.2 km
Inclination: 98.8 °
Period: 104.1 minutes
Semi major axis: 7328 km
RCS: Unknown
Launch date: March 24, 1995
Source: United States (US)
Launch site: AIR FORCE WESTERN TEST RANGE (AFWTR)

Note: This is SATELLITE DEBRIS
Your satellite tracking list
Your tracking list is empty




NASA's NSSDC Master Catalog

Two Line Element Set (TLE):
1 40565U 95015DY  24323.34356262  .00002381  00000-0  19468-2 0  9999
2 40565  98.7651  99.3197 0171814  24.3069 336.6072 13.83893892484324
Source of the keplerian elements: AFSPC